Miscellaneous Local Product
Issued by NWS Hastings, NE

Home | Current Version | Previous Version | Text Only | Print | Product List | Glossary On
Versions: 1 2 3 4 5 6 7 8 9 10 11 12 13 14 15 16 17 18 19 20 21 22 23 24 25 26 27 28 29 30 31 32 33 34 35 36 37 38 39 40 41 42 43 44 45 46 47 48 49 50
000
AXUS43 KGID 211602
MISGRI

GID CWA HOURLY WEATHER ROUNDUP
NATIONAL WEATHER SERVICE HASTINGS NE
1100 AM CDT SAT OCT 21 2017

NOTE: "FAIR" INDICATES FEW OR NO CLOUDS BELOW 12,000 FEET WITH NO
SIGNIFICANT WEATHER AND/OR OBSTRUCTIONS TO VISIBILITY.

...SOUTH CENTRAL NEBRASKA...

CITY           SKY/WX    TMP DP  RH WIND       PRES   REMARKS
GRAND ISLAND   CLOUDY    65  56  72 NW33G41   29.64R
KEARNEY        CLOUDY    59  41  51 NW22G35   29.73R
HASTINGS       MOSUNNY   67  53  61 NW24      29.64R
ORD            CLOUDY    54  40  59 NW25G45   29.70R
YORK           CLOUDY    70  61  73 SW16G28   29.62R
AURORA         CLOUDY    69  57  67 SW16G24   29.62R
LEXINGTON      CLOUDY    59  37  44 NW29G36   29.76R
HOLDREGE       CLOUDY    60  42  51 NW23G35   29.73R
HEBRON         CLOUDY    72  62  70 SW25G32   29.64R

...NEBRASKA PANHANDLE...

CITY           SKY/WX    TMP DP  RH WIND       PRES   REMARKS
CHADRON        CLOUDY    50  20  30 NW18G30   29.88R
ALLIANCE       MOSUNNY   51  24  34 NW17      29.88R HAZE
SCOTTSBLUFF    SUNNY     50  23  34 W21       29.92R
SIDNEY         SUNNY     50  21  32 NW24G33   29.93R

...WESTERN AND NORTH CENTRAL NEBRASKA...

CITY           SKY/WX    TMP DP  RH WIND       PRES   REMARKS
VALENTINE      LGT RAIN  46  40  79 NW15G26   29.81R
AINSWORTH      CLOUDY    47  38  69 NW24G32   29.80R
ONEILL         CLOUDY    54  42  64 NW31G39   29.70R
BROKEN BOW     PTSUNNY   55  39  54 NW31G41   29.75R
IMPERIAL       CLOUDY    45  40  82 NW16G24   29.88R
NORTH PLATTE   CLOUDY    51  38  60 NW25G35   29.86R
MCCOOK         CLOUDY    55  34  45 NW38G54   29.82R

...EASTERN NEBRASKA...

CITY           SKY/WX    TMP DP  RH WIND       PRES   REMARKS
NORFOLK        CLOUDY    70  61  73 SW17      29.58R
SO SIOUX CITY  CLOUDY    69  63  81 S13       29.60R
TEKAMAH        CLOUDY    71  61  70 S13G22    29.62R
COLUMBUS       CLOUDY    70  62  76 S15G23    29.62R HAZE
ALBION         CLOUDY    61  47  60 NW23G33   29.64R
OMAHA EPPLEY   CLOUDY    70  61  73 S21G33    29.65S
OFFUTT AFB     MOSUNNY   71  62  71 S18G30    29.66S
MILLARD        CLOUDY    72  64  75 S16G23    29.65S
LINCOLN        CLOUDY    72  62  71 S25G33    29.63S
NEBRASKA CITY  CLOUDY    69  64  85 S22G28    29.71S
BEATRICE       CLOUDY    71  64  78 S18G28    29.67S
FALLS CITY     CLOUDY    70  61  73 S22G32    29.73R

...NORTHERN KANSAS...

CITY           SKY/WX    TMP DP  RH WIND       PRES   REMARKS
GOODLAND       CLOUDY    48  35  60 NW25G33   29.88R
HILL CITY      CLOUDY    61  33  35 NW29G44   29.79R
NORTON         SUNNY     57  27  30 NW32G40   29.77R
PHILLIPSBURG   SUNNY     64  28  25 NW26G38   29.74R
SMITH CENTER     N/A     64  43  45 NW25G35   29.72R
HAYS           MOSUNNY   65  32  29 NW30G36   29.77R
RUSSELL        CLOUDY    64  41  42 NW24      29.75R
CONCORDIA      LGT RAIN  72  63  73 SW26G37   29.68R
SALINA         CLOUDY    74  63  68 SW26      29.73R
TOPEKA         PTSUNNY   73  64  73 S26G41    29.75F



USA.gov is the U.S. government's official web portal to all federal, state and local government web resources and services.